Home   Weather   Langesund   Past weeks

Flag for Norway Past Weather in Langesund, Norway — Yesterday and Last 2 Weeks

Now
38 °F

Chilly.


Feels Like: 33 °F
Forecast: 25 / 33 °F
Wind: 7 mph from Southwest

Location: Jomfruland Fyr

Current Time: Jan 17, 2017 at 6:40:41 pm

Latest Report: Jan 17, 2017 at 6:00 pm


Visibility: N/A

Pressure: 30.40 "Hg

Humidity: 92%

Dew Point: 36 °F

Location of LangesundLocation

Past Weather in Langesund — Graph

°F

Langesund Temperature Yesterday

Maximum temperature yesterday: 33 °F (at 2:00 pm)
Minimum temperature yesterday: 24 °F (at 6:00 am)
Average temperature yesterday: 27 °F

High & Low Weather Summary for the Past Weeks

 TemperatureHumidityPressure
High44 °F (Jan 11, 12:00 am)96% (Jan 6, 2:00 pm)30.70 "Hg (Jan 6, 2:00 pm)
Low20 °F (Jan 5, 4:00 pm)30% (Jan 4, 12:00 pm)28.50 "Hg (Jan 11, 2:00 pm)
Average35 °F75%29.81 "Hg
* Reported Jan 2 5:00 pm — Jan 17 5:00 pm, Langesund, Weather by CustomWeather, © 2017

Note: Actual official high and low records may vary slightly from our data, if they occured in-between our weather recording intervals... More about our weather records

Advertising

Langesund Weather History for the Previous 24 Hours

Scroll right to see more
 ConditionsComfort  
Time TempWeatherWind HumidityBarometerVisibility
5:00 pm
Tue, Jan 17
38 °FChilly.6 mph90%30.39 "HgN/A
4:00 pm38 °FChilly.5 mph88%30.39 "HgN/A
3:00 pm38 °FChilly.5 mph88%30.39 "HgN/A
2:00 pm38 °FChilly.6 mph87%30.39 "HgN/A
1:00 pm38 °FChilly.6 mph84%30.39 "HgN/A
12:00 pm37 °FChilly.7 mph83%30.40 "HgN/A
11:00 am35 °FChilly.6 mph83%30.42 "HgN/A
10:00 am35 °FChilly.7 mph85%30.42 "HgN/A
9:00 am34 °FChilly.6 mph85%30.42 "HgN/A
8:00 am33 °FChilly.7 mph84%30.41 "HgN/A
7:00 am32 °FChilly.7 mph86%30.42 "HgN/A
6:00 am31 °FChilly.7 mph87%30.44 "HgN/A
5:00 am32 °FChilly.8 mph71%30.45 "HgN/A
4:00 am31 °FChilly.5 mph65%30.44 "HgN/A
3:00 am31 °FChilly.7 mph64%30.44 "HgN/A
2:00 am32 °FChilly.7 mph66%30.45 "HgN/A
1:00 am30 °FChilly.3 mph75%30.46 "HgN/A
12:00 am27 °FChilly.2 mph79%30.47 "HgN/A
11:00 pm
Mon, Jan 16
26 °FChilly.No wind73%30.47 "HgN/A
10:00 pm26 °FChilly.1 mph71%30.48 "HgN/A
9:00 pm26 °FChilly.2 mph70%30.47 "HgN/A
8:00 pm27 °FChilly.2 mph62%30.46 "HgN/A
7:00 pm28 °FChilly.1 mph61%30.45 "HgN/A
6:00 pm28 °FChilly.2 mph59%30.44 "HgN/A
Weather by CustomWeather, © 2017

See weather overviewHow to use our weather pages